This is the latest recevied weather packets stored in our database for station/object NO9B. If no packets are shown the sender has not sent any weather packets the latest 10 day(s).
| Time | Temp. | Humidity | Pressure | Rain* | Wind** | Luminosity | Snow |
|---|---|---|---|---|---|---|---|
| 1787757876 | 25° C | 76% | 1012.9 hPa | 0 mm | - | 57 W/m² | - |
| 1787757572 | 24.44° C | 79% | 1013 hPa | 0 mm | - | 56 W/m² | - |
| 1787757272 | 24.44° C | 78% | 1013 hPa | 0 mm | - | 54 W/m² | - |
| 1787756970 | 24.44° C | 79% | 1012.9 hPa | 0 mm | - | 59 W/m² | - |
| 1787756666 | 24.44° C | 81% | 1012.9 hPa | 0 mm | - | 52 W/m² | - |
| 1787756365 | 23.89° C | 79% | 1012.9 hPa | 0 mm | - | 49 W/m² | - |
| 1787756060 | 23.89° C | 81% | 1013 hPa | 0 mm | - | 66 W/m² | - |
| 1787755755 | 23.89° C | 81% | 1013 hPa | 0 mm | - | 49 W/m² | - |
| 1787755450 | 23.33° C | 83% | 1012.6 hPa | 0 mm | - | 69 W/m² | - |
| 1787755150 | 23.33° C | 82% | 1012.9 hPa | 0 mm | - | 63 W/m² | - |
| 1787754849 | 23.33° C | 82% | 1012.8 hPa | 0 mm | - | 99 W/m² | - |
| 1787754548 | 22.78° C | 84% | 1012.9 hPa | 0 mm | - | 78 W/m² | - |
| 1787754246 | 22.78° C | 84% | 1012.9 hPa | 0 mm | - | 87 W/m² | - |
| 1787753941 | 22.78° C | 84% | 1012.9 hPa | 0 mm | - | 62 W/m² | - |
| 1787753641 | 22.78° C | 84% | 1012.7 hPa | 0 mm | - | 84 W/m² | - |
| 1787753340 | 22.78° C | 85% | 1012.9 hPa | 0 mm | - | 72 W/m² | - |
| 1787753035 | 22.78° C | 85% | 1013 hPa | 0 mm | - | 58 W/m² | - |
| 1787752734 | 22.78° C | 85% | 1012.7 hPa | 0 mm | - | 61 W/m² | - |
| 1787752429 | 22.78° C | 85% | 1012.9 hPa | 0 mm | - | 75 W/m² | - |
| 1787752124 | 22.22° C | 85% | 1013 hPa | 0 mm | - | 77 W/m² | - |
| 1787751812 | 22.22° C | 85% | 1012.8 hPa | 0 mm | - | 33 W/m² | - |
| 1787751507 | 22.22° C | 85% | 1012.9 hPa | 0 mm | - | 47 W/m² | - |
| 1787751203 | 22.22° C | 85% | 1013 hPa | 0 mm | - | 45 W/m² | - |
| 1787750898 | 21.67° C | 85% | 1012.9 hPa | 0 mm | - | 57 W/m² | - |
| 1787750594 | 21.67° C | 85% | 1012.9 hPa | 0 mm | - | 54 W/m² | - |
* Rain latest hour (hover to see other rain measurements)
** Current wind speed in m/s (hover to see current wind gust speed)